Cloud_Cover
0 0 0 0 0 0 0 0 0 0 0 0 0 0 0 0 0 0 0 0 3 0 0 0 0 0 0 0 0 0 0 0 0 3 5 5 1 1 0 0 0 1 4 0
0 0 0 0 0 0 0 0 0 0 0 0 0 0 0 0 0 0 0 0 0 0 0 0 0 5 0 0 0 2 5 0 0 0 5 5 1 0 4 7 0 0 0 0
0 0 0 0 0 0 0 0 0 0 0 0 0 0 0 0 0 2 0 0 0 0 0 0 0 5 0 0 0 0 3 0 0 1 5 37 5 95 100 96 14 4 0 0
0 0 0 0 14 1 0 0 0 0 0 0 0 4 0 0 1 4 0 0 0 0 0 0 0 14 0 0 0 5 46 1 5 5 17 57 97 100 100 70 6 2 0 0
0 0 0 0 0 0 0 0 0 4 5 0 3 0 0 0 0 0 0 0 0 0 0 0 13 3 0 0 4 5 0 5 52 8 71 100 100 100 5 5 5 0 0 0
0 0 0 0 1 0 0 0 4 5 0 1 0 0 0 0 0 0 0 0 0 4 16 16 2 3 4 14 5 5 59 100 86 51 100 100 94 71 20 5 4 3 2 0
4 4 5 5 5 3 19 24 2 0 0 0 0 0 0 0 0 0 0 65 75 54 60 93 13 5 6 43 45 100 79 100 74 100 99 57 18 5 4 5 5 2 2 0
5 5 5 5 5 5 11 2 0 0 0 0 0 0 0 0 0 0 0 68 99 100 81 29 3 76 99 98 92 100 41 82 100 14 6 4 5 93 19 5 1 15 20 10
55 94 5 5 0 1 5 5 1 0 0 0 0 0 0 0 0 0 0 6 99 98 44 62 78 13 76 91 19 76 100 34 24 2 6 80 100 5 0 2 2 3 0 85
5 16 5 5 5 5 5 0 0 0 0 0 0 0 0 0 0 0 0 1 30 27 1 10 87 56 88 71 68 100 93 16 4 100 27 95 3 1 8 0 0 0 14 100
5 46 10 5 1 0 4 3 0 0 0 0 0 0 0 0 0 0 0 0 0 0 0 25 100 28 100 100 100 100 12 85 90 100 66 2 34 5 0 5 0 4 5 100
32 5 4 2 1 5 7 52 5 5 0 0 0 0 0 2 5 0 0 0 0 4 36 33 40 84 95 100 100 82 100 69 66 100 47 59 12 1 2 0 2 5 5 100
5 1 0 0 0 4 5 2 5 4 3 1 0 0 2 1 2 0 0 1 3 12 53 5 5 79 98 98 100 100 100 100 100 85 3 5 5 0 0 0 14 42 5 66
5 2 5 0 34 3 5 81 5 5 6 4 3 5 3 2 1 0 0 1 1 3 3 39 9 100 100 100 100 100 100 100 7 60 9 5 5 0 0 2 100 5 6 5
11 34 60 27 4 0 0 27 86 19 2 0 0 0 0 0 0 0 0 0 0 0 1 11 21 100 100 100 100 100 100 62 82 60 4 10 9 0 8 91 50 7 5 5
24 64 100 100 44 100 36 64 100 6 0 0 0 0 0 0 0 0 0 0 0 4 5 5 84 100 100 100 100 100 100 85 10 9 5 15 1 0 100 43 9 70 2 87
4 62 71 98 45 93 8 6 24 2 0 0 0 0 0 0 0 7 0 0 0 0 1 4 99 97 100 100 100 86 100 73 98 62 5 89 1 10 100 38 21 44 11 12
4 0 0 15 26 1 0 0 0 0 0 0 0 0 0 0 14 0 0 0 0 0 25 100 100 100 100 100 100 100 98 57 44 5 2 5 0 12 88 5 5 38 5 43
0 0 0 2 4 2 0 0 0 0 0 0 0 0 0 0 0 0 0 0 0 1 76 80 95 100 100 100 100 100 100 91 100 16 4 4 3 68 97 16 95 98 91 44
5 5 4 5 5 5 0 0 0 0 0 0 0 0 0 0 0 0 0 0 0 2 40 88 100 100 100 100 100 100 100 100 100 84 4 0 24 98 75 78 97 100 61 5
5 5 5 17 5 0 0 2 1 0 0 0 0 3 4 0 1 0 3 1 19 16 98 100 100 100 100 100 100 100 100 100 16 40 1 10 100 75 86 80 44 100 10 98
5 0 4 5 5 5 35 18 56 58 18 4 4 5 4 33 9 0 0 5 8 61 98 100 100 100 100 100 100 100 99 21 5 2 0 62 100 64 94 41 58 78 73 99
15 5 5 5 5 75 100 100 100 100 93 15 5 5 1 28 33 7 15 5 12 87 95 100 100 98 100 31 2 5 1 4 1 0 0 80 100 100 100 98 100 68 100 87
63 89 5 5 5 29 92 100 100 86 66 92 78 36 5 16 5 5 5 24 94 100 100 100 100 100 100 100 79 100 4 0 0 0 0 92 100 100 100 100 96 99 89 90
85 21 5 5 11 22 31 75 8 40 84 42 36 7 5 0 17 10 9 64 99 100 99 100 100 100 100 58 97 71 2 0 0 0 1 79 69 100 100 100 100 100 98 69
51 19 5 50 87 100 100 100 100 66 15 5 84 21 4 0 9 32 99 76 68 57 29 77 100 100 100 61 20 5 4 0 0 0 0 8 52 98 100 100 100 100 100 96